Regional Weather Roundup
Issued by NWS

Home | Current Version | Previous Version | Graphics & Text | Print | Product List | Glossary On
Versions: 1 2 3 4 5 6 7 8 9 10 11 12 13 14 15 16 17 18 19 20 21 22 23 24 25 26 27 28 29 30 31 32 33 34 35 36 37 38 39 40 41 42 43 44 45 46 47 48 49 50
000
ASUS45 KBOU 271707
RWRCO

WEATHER ROUNDUP FOR COLORADO
NATIONAL WEATHER SERVICE DENVER/BOULDER CO
1100 AM MDT MON APR 27 2015

NOTE: "FAIR" INDICATES FEW OR NO CLOUDS BELOW 12000 FEET WITH NO
SIGNIFICANT WEATHER AND/OR OBSTRUCTIONS TO VISIBILITY.

COZ001>005-013-030-031-271800-
...NORTHWEST COLORADO...

CITY           SKY/WX    TMP DP  RH WIND       PRES   REMARKS
CRAIG          PTSUNNY   50  37  61 VRB3      30.19S
HAYDEN         PTSUNNY   46  34  61 SW5       30.19F
MEEKER         CLOUDY    44  37  76 SW6       30.20R
MOUNT WERNER   NOT AVBL
STEAMBOAT SPGS MOSUNNY   47  38  69 CALM      30.19S
WALDEN         CLOUDY    43  28  56 CALM      30.23R
$$

COZ006>008-011-271800-
...WEST CENTRAL VALLEYS...

CITY           SKY/WX    TMP DP  RH WIND       PRES   REMARKS
GRAND JUNCTION MOSUNNY   54  39  57 N12       30.12S
MONTROSE       MOSUNNY   51  40  65 VRB7      30.16S
EAGLE          MOSUNNY   48  36  61 CALM      30.18F
RIFLE          SUNNY     53  35  50 CALM      30.15S
DELTA          CLOUDY    54  41  61 MISG      30.15F
NUCLA          SUNNY     52  37  58 CALM      30.16S
$$

COZ017>023-064>068-271800-
...SOUTHWEST COLORADO...

CITY           SKY/WX    TMP DP  RH WIND       PRES   REMARKS
DURANGO        SUNNY     52  35  52 VRB3      30.09S
CORTEZ         SUNNY     56  39  53 VRB5      30.08S
PAGOSA SPRINGS SUNNY     52  24  34 E14G24    30.10S
TELLURIDE      SUNNY     43  32  64 W3        30.18S
WOLF CREEK PAS NOT AVBL
$$

COZ009-010-012-014-032>034-037-058>063-271800-
...CENTRAL COLORADO...

CITY           SKY/WX    TMP DP  RH WIND       PRES   REMARKS
ASPEN          MOSUNNY   44  32  62 NE6       30.17S
BUENA VISTA    CLOUDY    43  31  63 SE5       30.21S
COPPER MTN     PTSUNNY   34  23  64 SE10G16   30.28R WCI  26
BERTHOUD PASS  SNOW      23  16  74 E9        30.33R VSB<1/4 WCI  13
COTTONWOOD PAS CLOUDY    36  30  80 SE6       30.25S
GUNNISON       SUNNY     46  30  53 W3        30.18S
KREMMLING      SUNNY     50  30  46 CALM      30.20F
LEADVILLE      CLOUDY    37  26  64 NW3       30.23R
MONARCH PASS   CLOUDY    27  23  86 MISG      30.33F
SALIDA         CLOUDY    42  37  81 E8        30.29S
SUNLIGHT       SUNNY     36  32  87 CALM      30.29R
WILKERSON PASS SNOW     N/A N/A N/A NE8       30.30S VSB 1/2
$$

COZ069>075-271800-
...SAN LUIS VALLEY/SANGRE DE CRISTO MOUNTAINS...

CITY           SKY/WX    TMP DP  RH WIND       PRES   REMARKS
ALAMOSA        MOSUNNY   49  30  48 NE18G28   30.14R
LA VETA PASS   SNOW      27  27 100 MISG      30.20R VSB 1/4
SAGUACHE       PTSUNNY   50  32  50 NE7G17    30.16R
$$

COZ035-036-038>040-271800-
...NORTHERN COLORADO FRONT RANGE...

CITY           SKY/WX    TMP DP  RH WIND       PRES   REMARKS
DENVER INTL AP CLOUDY    41  38  89 N9        30.28R
DMNS CITY PARK   N/A     41  38  88 N3        30.28R
AURORA         CLOUDY    39  39 100 N8        30.28R FOG
FRONT RANGE AP CLOUDY    41  41 100 N6        30.28R FOG
ERIE MUNI ARPT CLOUDY    42  40  91 N6        30.29R
BOULDER MUN AP CLOUDY    43  39  87 NE3       30.28S
CENTENNIAL     CLOUDY    39  37  92 N7        30.27R
BROOMFIELD     CLOUDY    41  39  93 N6        30.28S
FORT COLLINS   CLOUDY    43  37  81 N6        30.30R
LONGMONT       DRIZZLE   45  40  85 N5        30.31R
$$

COZ041-046-047-076>085-087-088-271800-
...PIKES PEAK/PALMER DIVIDE AND SOUTHERN FOOTHILLS...

CITY           SKY/WX    TMP DP  RH WIND       PRES   REMARKS
COLO. SPRINGS  CLOUDY    42  36  79 N13       30.24S
A. F. ACADEMY  CLOUDY    39  37  91 N14       30.24R
ELLICOTT       CLOUDY   N/A N/A N/A NE15      30.23R
FALCON         CLOUDY    38  36  93 N14       30.25R
FORT CARSON    CLOUDY    43  37  81 N16       30.22S
LIMON          CLOUDY    40  37  89 NE16      30.25R
MONUMENT HILL  DRIZZLE   34  34 100 N8        30.25R WCI  27
TRINIDAD       LGT RAIN  38  36  92 NE16      30.19R FOG
$$

COZ042>045-048>051-090-091-271800-
...NORTHEAST COLORADO...

CITY           SKY/WX    TMP DP  RH WIND       PRES   REMARKS
GREELEY ARPT   CLOUDY    43  36  75 NW3       30.30R
AKRON          CLOUDY    47  40  76 E9        30.26S
BURLINGTON     PTSUNNY   50  35  56 NE17G29   30.22R
WRAY           PTSUNNY   53  33  47 NE13      30.25S
STERLING       CLOUDY    46  43  87 NE6       30.27R
HOLYOKE        PTSUNNY   54  36  50 E8        30.27R
FORT MORGAN    CLOUDY    44  41  89 NE7       30.28S
$$

COZ086-089-092>099-271800-
...SOUTHEAST COLORADO...

CITY           SKY/WX    TMP DP  RH WIND       PRES   REMARKS
PUEBLO         CLOUDY    44  40  85 N12       30.23R
LA JUNTA       CLOUDY    47  39  74 NE17      30.20R
LAMAR          PTSUNNY   51  38  60 NE22      30.15R
SPRINGFIELD      N/A     43  38  82 N28G35    30.11R
$$


USA.gov is the U.S. government's official web portal to all federal, state and local government web resources and services.